KA6AKH-13 Weather Reports


time (UTC)temp
C
wind
direction
speed
KPH
gust
KPH
rain 1hr
cm
rain 24hr
cm
rain mn
cm
humidity
%
barometer
mb
20260507130833 12 58 0.0 0.0 0.00 0.00 0.00 68 1012.8
20260507130710 12 58 0.0 0.0 0.00 0.00 0.00 68 1012.8
20260507121439 13 25 0.0 0.0 0.00 0.03 0.00 87 1012.7
20260507120439 13 25 0.0 0.0 0.00 0.03 0.00 87 1012.7
20260507113309 13 25 0.0 0.0 0.00 0.03 0.00 92 1012.3
20260507100039 13 25 0.0 0.0 0.00 0.03 0.00 94 1011.6
20260507095354 13 25 0.0 0.0 0.00 0.03 0.00 94 1011.7
20260507095039 13 25 0.0 0.0 0.00 0.03 0.00 94 1011.7
20260507094009 13 25 0.0 0.0 0.00 0.03 0.00 94 1011.7
20260507093016 13 25 0.0 0.0 0.00 0.03 0.00 94 1011.6
20260507092939 13 25 0.0 0.0 0.00 0.03 0.00 94 1011.6
20260507090909 13 25 0.0 0.0 0.00 0.03 0.00 94 1011.5
20260507081739 13 25 0.0 0.0 0.00 0.03 0.00 94 1011.3
20260507080739 13 25 0.0 0.0 0.00 0.03 0.00 94 1010.9
20260507075709 13 25 0.0 0.0 0.00 0.03 0.00 94 1010.7
20260507071509 13 40 0.0 0.0 0.00 0.03 0.00 94 1010.5
20260507070509 13 328 0.0 0.0 0.00 0.03 0.00 94 1010.4
20260507065439 13 328 0.0 0.0 0.00 0.03 0.00 95 1010.6
20260507064439 14 24 0.0 0.0 0.00 0.03 0.00 95 1010.4
20260507063409 14 342 0.0 0.0 0.00 0.03 0.00 94 1010.3
20260507060239 14 350 0.0 0.0 0.00 0.03 0.00 94 1010.4
20260507055209 14 333 0.0 0.0 0.00 0.03 0.00 93 1010.2
20260507050109 15 51 0.0 1.6 0.00 0.03 0.00 91 1010.5
20260507045109 15 30 1.6 4.8 0.00 0.03 0.00 90 1010.5
20260507043009 17 68 0.0 0.0 0.00 0.03 0.00 83 1010.7
20260507040939 17 68 0.0 0.0 0.00 0.03 0.00 78 1010.4
20260507034909 17 41 0.0 0.0 0.00 0.03 0.03 77 1010.2
20260507033909 18 18 0.0 3.2 0.00 0.03 0.03 76 1010.3
20260507032945 18 5 1.6 8.0 0.00 0.03 0.03 76 1010.1
20260507032909 18 5 1.6 8.0 0.00 0.03 0.03 76 1010.1
20260507032158 18 89 0.0 0.0 0.00 0.03 0.03 76 1009.9
20260507031839 18 89 0.0 0.0 0.00 0.03 0.03 76 1009.9
20260507025739 18 48 1.6 4.8 0.00 0.03 0.03 77 1009.5
20260507024709 18 15 1.6 3.2 0.00 0.03 0.03 80 1009.7
20260507023639 19 20 0.0 0.0 0.00 0.03 0.03 82 1009.5
20260507022609 19 42 1.6 3.2 0.00 0.03 0.03 84 1009.2
20260507021539 20 68 0.0 0.0 0.00 0.03 0.03 85 1009.0
20260507020539 20 22 0.0 3.2 0.00 0.03 0.03 86 1008.9
20260507013729 20 217 0.0 0.0 0.00 0.03 0.03 86 1008.9
20260507013509 20 217 0.0 0.0 0.00 0.03 0.03 86 1008.9
20260507011324 20 217 0.0 0.0 0.00 0.03 0.03 85 1009.3
20260507010439 20 217 0.0 0.0 0.00 0.03 0.03 85 1009.3
20260507004409 20 217 0.0 0.0 0.00 0.03 0.03 83 1009.0
20260507003339 20 217 0.0 0.0 0.00 0.03 0.03 82 1009.0
20260507002309 20 217 0.0 0.0 0.00 0.03 0.03 81 1009.0
20260506235209 21 217 0.0 0.0 0.00 0.03 0.03 79 1008.6
20260506231109 21 220 0.0 3.2 0.00 0.03 0.03 78 1008.0
20260506230521 21 221 4.8 8.0 0.00 0.03 0.03 77 1008.1
20260506230109 21 221 4.8 8.0 0.00 0.03 0.03 77 1008.1
20260506225108 21 126 0.0 3.2 0.00 0.03 0.03 77 1007.9
20260506215939 21 235 4.8 11.3 0.00 0.03 0.03 77 1008.0
20260506214908 21 252 4.8 9.7 0.00 0.03 0.03 76 1008.1
20260506213839 21 178 0.0 8.0 0.00 0.03 0.03 76 1008.1
20260506210738 21 200 0.0 0.0 0.00 0.03 0.03 78 1007.9
20260506210007 21 229 8.0 14.5 0.00 0.03 0.03 76 1007.7
20260506205738 21 229 8.0 14.5 0.00 0.03 0.03 76 1007.7
20260506203709 21 233 9.7 14.5 0.00 0.03 0.03 76 1007.5
20260506202638 21 253 3.2 11.3 0.00 0.03 0.03 77 1007.6
20260506200836 21 230 3.2 11.3 0.00 0.03 0.03 79 1007.8
20260506200608 21 230 3.2 11.3 0.00 0.03 0.03 79 1007.8
20260506195539 21 224 3.2 8.0 0.00 0.03 0.03 79 1007.8
20260506194509 20 200 4.8 14.5 0.00 0.03 0.03 79 1007.9
20260506194155 20 202 4.8 12.9 0.00 0.03 0.03 80 1007.8
20260506193509 20 202 4.8 12.9 0.00 0.03 0.03 80 1007.8
20260506192440 20 215 4.8 11.3 0.00 0.03 0.03 81 1007.8
20260506191408 20 166 3.2 16.1 0.00 0.03 0.03 81 1008.0
20260506190408 20 196 3.2 14.5 0.00 0.03 0.03 81 1008.3
20260506185338 20 203 4.8 8.0 0.00 0.03 0.03 80 1008.3
20260506184309 20 224 3.2 9.7 0.00 0.03 0.03 80 1008.4
20260506182209 20 227 8.0 14.5 0.00 0.03 0.03 80 1008.5
20260506175139 19 171 0.0 0.0 0.00 0.03 0.03 83 1008.8
20260506173039 18 263 1.6 4.8 0.00 0.03 0.03 86 1008.9
20260506170938 18 231 11.3 14.5 0.00 0.03 0.03 87 1009.0
20260506165908 18 238 8.0 12.9 0.00 0.03 0.03 89 1009.2
20260506163839 17 245 4.8 9.7 0.00 0.03 0.03 93 1009.4
20260506155638 17 220 3.2 12.9 0.00 0.03 0.03 96 1009.5
20260506154946 17 204 0.0 11.3 0.00 0.03 0.03 96 1009.7
20260506154609 17 204 0.0 11.3 0.00 0.03 0.03 96 1009.7
20260506153539 17 191 1.6 11.3 0.00 0.03 0.03 96 1009.8
20260506151739 16 188 0.0 8.0 0.00 0.03 0.03 96 1009.7
20260506151509 16 188 0.0 8.0 0.00 0.03 0.03 96 1009.7
20260506145438 16 187 1.6 9.7 0.00 0.03 0.03 96 1010.2
20260506144438 16 219 1.6 3.2 0.00 0.03 0.03 95 1010.4
20260506143408 16 180 0.0 4.8 0.00 0.03 0.03 95 1010.3
20260506140338 16 247 0.0 0.0 0.00 0.03 0.03 94 1010.2
20260506135309 17 247 0.0 0.0 0.00 0.03 0.03 94 1010.3
20260506134509 17 216 0.0 0.0 0.00 0.03 0.03 93 1010.5
20260506134238 17 216 0.0 0.0 0.00 0.03 0.03 93 1010.5
20260506132208 17 241 1.6 4.8 0.00 0.03 0.03 90 1010.7